Location: Camden Lake
(44.4269°N, 76.8469°W)
Time: 05:04:44
(UTC-04:00)

Daily predictions for brighter satellites

Satellite Brightness Start Highest point End
(mag) Time Altitude Azimuth Time Altitude Azimuth Time Altitude Azimuth
Aureole 2 Rocket 3.2 00:03:22 10° N 00:06:17 38° ENE 00:06:17 38° ENE
ERBS 3.4 00:05:21 15° WSW 00:07:59 45° NW 00:11:22 10° NE
ATLAS 2AS CENTAUR R/B 3.2 00:06:58 10° SW 00:14:32 72° NW 00:22:42 10° NE
CZ-4C R/B 3.1 00:15:17 62° ENE 00:15:18 62° ENE 00:18:52 10° N
Cosmos 2237 Rocket 3.6 00:14:54 10° NW 00:19:31 26° WSW 00:21:31 21° SW
CZ-4C R/B 3.6 00:16:53 10° NNW 00:23:33 48° NE 00:29:59 14° ESE
Cosmos 44 Rocket 3.4 00:22:33 50° S 00:23:48 69° ESE 00:29:02 10° NE
COS B Rocket 4.1 00:20:13 10° NNW 00:23:50 43° W 00:24:36 39° WSW
Terra 4.0 00:22:18 13° WSW 00:24:26 16° W 00:27:22 10° NW
Cosmos 1932 4.5 00:19:52 10° NNW 00:26:18 82° NE 00:29:08 36° SE
ATLAS 3B R/B 2.9 00:22:19 10° NW 00:29:03 53° WSW 00:31:15 38° SSW
Lacrosse 4 Rocket 2.1 00:25:12 10° NW 00:29:24 43° WSW 00:29:44 42° SW
Cosmos 1892 3.1 00:30:53 49° E 00:30:53 49° E 00:34:22 10° NNE
Cosmos 1356 Rocket 4.1 00:35:06 38° E 00:35:06 38° E 00:38:49 10° NNE
Meteor 2-3 Rocket 3.7 00:33:21 44° SSW 00:35:20 88° W 00:41:05 10° N
Cosmos 2184 Rocket 3.9 00:35:13 41° S 00:37:37 86° W 00:43:50 10° N
USA 238 DEB 3.7 00:31:46 10° NW 00:38:51 88° SW 00:42:03 36° SE
USA 238 3.7 00:31:53 10° NW 00:38:57 89° SW 00:42:10 36° SE
MOS 1-B Rocket 4.4 00:38:04 32° SE 00:40:24 50° ENE 00:45:49 10° N
Meteor 1-10 Rocket 4.5 00:35:55 10° N 00:41:51 68° ENE 00:43:54 42° SE
In-Cosmos 22 Rocket 4.4 00:42:03 39° SSW 00:44:11 69° WNW 00:49:59 10° N
Cosmos 2251 Rocket 3.4 00:39:13 10° NNW 00:44:35 85° WSW 00:45:53 53° SSE
Cosmos 1689 Rocket 2.7 00:47:10 62° NNW 00:47:10 62° NNW 00:50:00 10° NNW
NOSS 2-3 (E) 4.2 00:46:41 33° SW 00:48:58 71° NW 00:54:49 10° NE
COSMOS 2455 3.8 00:46:53 10° NW 00:52:05 31° WSW 00:53:21 29° SW
Landsat 5 3.5 00:51:59 66° S 00:52:35 82° WSW 00:57:10 10° NNW
Cosmos 1825 4.0 00:54:20 21° E 00:54:20 21° E 00:57:08 10° NE
Sich 1 Rocket 3.8 00:56:52 52° ESE 00:57:18 55° E 01:01:44 10° NNE
Cosmos 1733 Rocket 2.9 00:58:01 68° SSW 00:58:34 86° W 01:03:03 10° N
H-2A R/B 2.7 00:54:36 10° N 00:58:48 64° WNW 00:59:30 54° WSW
Cosmos 2341 Rocket 4.3 00:56:56 40° SSE 00:59:06 59° E 01:05:21 10° NNE
CZ-2C R/B 4.1 00:56:36 26° ESE 00:59:14 42° ENE 01:04:28 10° N
Cosmos 2227 Rocket 4.4 00:56:27 10° W 01:00:38 21° NW 01:04:50 10° N
Cosmos 2263 Rocket 3.3 01:02:46 27° ESE 01:03:41 29° ESE 01:08:28 10° NE
Uosat 12 SS-18 rocket 4.2 01:02:38 53° SW 01:03:46 85° NW 01:08:15 10° NE
GEOS 3 Rocket 3.8 01:03:03 47° SSW 01:03:48 51° WSW 01:08:53 10° NW
USA 234 4.4 00:58:56 10° E 01:04:58 42° NNE 01:11:01 10° NW
Cosmos 494 Rocket 3.9 01:03:40 10° NNW 01:08:57 76° WSW 01:10:05 55° S
Cosmos 1782 2.7 01:05:01 10° N 01:09:00 81° W 01:09:01 81° WSW
ALOS 2 3.3 01:09:14 39° WSW 01:09:34 39° W 01:13:43 10° NNW
SeaSat 1 3.6 01:09:19 28° WSW 01:09:40 28° WSW 01:13:54 10° NW
Cosmos 1378 Rocket 3.9 01:05:30 10° N 01:09:48 54° ENE 01:10:26 49° ESE
CZ-4B R/B 2.6 01:10:44 34° WNW 01:10:44 34° WNW 01:13:24 10° NNW
NOSS 3-2 (C) 4.3 01:05:04 10° NNW 01:12:26 64° NE 01:19:14 15° SE
SL-16 R/B 3.7 01:08:42 10° NW 01:12:52 21° W 01:13:53 20° WSW
Coronas F rocket 3.4 01:15:30 28° NNW 01:15:30 28° NNW 01:17:02 10° N
Meteor 2-10 Rocket 4.1 01:09:44 10° NNW 01:15:09 53° W 01:16:40 42° SW
Cosmos 1340 Rocket 3.3 01:16:02 45° W 01:16:18 46° WNW 01:20:07 10° N
Helios 1A Rocket 2.9 01:12:17 10° N 01:16:29 76° WNW 01:16:52 69° SW
Cosmos 2227 4.5 01:15:41 36° SW 01:17:57 63° WNW 01:23:38 10° NNE
Cosmos 1238 Rocket 2.6 01:15:33 10° N 01:19:25 75° NE 01:19:25 75° NE
ASTEX 1 4.2 01:18:09 10° N 01:22:45 41° WNW 01:24:03 34° WSW
Cosmos 44 3.5 01:24:33 46° SW 01:26:13 83° NW 01:31:43 10° NNE
CZ-2C R/B 2.5 01:21:01 10° NNE 01:26:16 81° ESE 01:27:31 53° S
RESURS DK-1 3.7 01:35:07 28° ESE 01:35:07 28° ESE 01:38:33 10° NE
Okean 2 Rocket 3.4 01:34:32 48° SE 01:35:13 53° E 01:39:37 10° NNE
NOSS 3-2 (A) 3.9 01:28:03 10° NW 01:35:32 87° SW 01:40:29 26° SSE
Cosmos 1782 Rocket 3.6 01:35:33 59° SE 01:36:03 65° E 01:40:25 10° NNE
NOSS 3-4 (A) 3.6 01:34:20 43° S 01:36:17 61° ESE 01:42:46 10° NE
NOSS 3-4 (C) 3.6 01:34:27 43° S 01:36:23 60° ESE 01:42:51 10° NE
Cosmos 1943 3.1 01:30:43 10° NNW 01:36:25 81° WSW 01:38:08 47° SSE
Meteor 1-27 Rocket 3.7 01:30:58 10° NNW 01:36:50 74° W 01:38:31 47° SSW
Nadezhda 3 Rocket 4.4 01:34:48 10° NNW 01:40:48 51° W 01:42:49 37° SW
PSLV R/B 3.7 01:46:14 71° SSE 01:46:38 85° ENE 01:50:43 10° NNW
Cosmos 1606 3.2 01:44:35 10° NNW 01:48:09 46° W 01:48:09 46° W
Cosmos 921 Rocket 3.7 01:50:11 37° W 01:50:57 41° WNW 01:54:58 10° N
Cosmos 1607 4.4 01:48:39 10° NW 01:54:21 41° WSW 01:55:24 38° SW
Cosmos 1862 3.5 01:54:08 56° W 01:54:25 58° W 01:58:24 10° N
BREEZE-M DEB (TANK) 4.0 01:36:25 10° WSW 01:54:47 86° NNW 01:59:18 10° ENE
Cosmos 1727 Rocket 4.2 01:50:36 10° N 01:56:50 67° E 01:59:48 32° SSE
Cosmos 1975 Rocket 2.9 01:52:33 10° NNW 01:56:56 71° W 01:57:28 62° SW
Cosmos 1371 Rocket 4.2 02:01:58 44° SSE 02:03:30 63° ESE 02:08:48 10° NNE
Cosmos 2056 Rocket 4.1 02:03:05 37° SSE 02:04:36 47° ESE 02:09:38 10° NNE
Cosmos 1908 Rocket 4.4 02:04:29 33° W 02:05:15 36° WNW 02:09:17 10° N
Cosmos 407 Rocket 4.4 02:03:06 10° N 02:08:03 44° ENE 02:11:51 16° SE
Cosmos 1536 Rocket 4.2 02:04:34 10° N 02:08:50 49° ENE 02:10:23 33° SE
CZ-4C R/B 3.2 02:05:28 10° NW 02:12:16 48° WSW 02:15:06 34° SSW
Cosmos 1408 3.6 02:17:43 35° W 02:17:59 35° WNW 02:21:29 10° N
PSLV R/B 3.6 02:18:53 10° NNE 02:23:05 67° E 02:24:03 49° SSE
ERS-2 3.9 02:23:39 10° NE 02:26:37 22° E 02:27:41 20° ESE
Cosmos 909 Rocket 4.2 02:24:06 35° SSW 02:26:59 71° ESE 02:34:23 10° NE
SL-27 R/B 3.6 02:24:47 10° N 02:28:18 42° ENE 02:29:56 25° ESE
Cosmos 1825 3.6 02:29:16 25° W 02:29:43 26° WNW 02:32:57 10° NNW
Abrixas rocket 2.3 02:30:35 70° ESE 02:30:35 70° ESE 02:33:41 10° ENE
BREEZE-M DEB (TANK) 4.1 02:29:28 10° WNW 02:32:48 52° N 02:43:44 10° E
Cosmos 2151 Rocket 3.5 02:33:02 49° SSW 02:34:13 83° W 02:38:43 10° N
Cosmos 1812 3.3 02:31:49 10° N 02:35:39 52° ENE 02:37:06 33° SE
CZ-2C R/B 4.2 02:37:41 27° WSW 02:39:08 31° W 02:44:05 10° NNW
Iridium 4 Rocket 3.3 02:36:44 10° N 02:41:26 78° W 02:43:23 38° S
SL-08 R/B 3.8 02:38:24 22° SSE 02:41:34 61° ENE 02:46:24 10° N
Okean 1 Rocket 4.0 02:40:15 26° SE 02:42:13 43° E 02:46:26 10° NNE
Cosmos 1844 Rocket 3.5 02:41:38 25° SSE 02:44:23 41° ESE 02:49:40 10° NE
Cosmos 1867 4.2 02:42:21 10° NW 02:47:19 36° WSW 02:48:17 33° SW
Cosmos 2263 Rocket 2.9 02:44:27 26° WSW 02:47:22 46° WNW 02:52:50 10° NNE
USA 234 3.2 02:41:06 10° SE 02:47:39 84° SW 02:54:13 10° NW
Cosmos 1624 Rocket 4.1 02:46:45 35° SW 02:48:54 66° WNW 02:54:09 10° NNE
Cosmos 1184 Rocket 4.0 02:50:42 29° W 02:50:57 30° WNW 02:53:57 10° N
CENTAUR R/B 3.2 02:47:06 10° NW 02:54:54 77° NE 03:03:11 10° SE
AQUA 4.2 02:50:54 10° NNE 02:55:37 59° E 02:57:59 28° S
SL-16 R/B 3.9 02:52:05 10° SE 02:57:43 37° ENE 03:03:19 10° N
Okean 1 3.3 02:53:45 10° N 02:57:46 84° E 02:59:23 35° SSE
IRS-P3 4.1 02:54:20 10° NNE 02:59:43 90° W 03:02:28 30° SSW
Cosmos 1242 Rocket 3.6 02:56:46 10° NNW 02:59:48 29° W 02:59:48 29° W
Cosmos 1821 Rocket 4.3 02:58:10 22° S 03:02:26 68° E 03:08:47 10° NNE
GP-B 3.1 02:58:26 10° N 03:02:54 77° E 03:05:07 29° S
Cosmos 1025 Rocket 4.4 02:59:15 10° N 03:03:14 36° ENE 03:07:13 10° SE
ATLAS 5 CENTAUR R/B 3.6 02:59:31 10° NNW 03:05:05 42° NE 03:11:02 10° ESE
COSMOS 2406 3.3 03:01:04 10° NNW 03:06:47 61° WSW 03:10:25 22° S
Resurs 1-4 Rocket 3.9 03:02:31 10° NE 03:06:49 25° E 03:11:05 10° SSE
Cosmos 2278 Rocket 3.5 03:04:52 16° SSE 03:08:41 33° ESE 03:13:41 10° NE
ARIANE 5 R/B 3.8 03:04:32 10° NNE 03:09:01 32° E 03:13:00 12° SSE
Cosmos 1452 Rocket 3.5 03:07:41 29° S 03:10:27 78° ESE 03:15:44 10° NNE
RESURS DK-1 3.8 03:11:02 20° W 03:12:59 29° NW 03:16:40 10° N
Meteor 1-25 Rocket 4.5 03:12:25 27° SSW 03:15:29 60° WNW 03:21:15 10° N
Cosmos 1809 Rocket 4.5 03:11:28 23° S 03:15:30 85° E 03:21:41 10° N
CBERS-1 4.0 03:13:32 10° NNE 03:18:43 85° WNW 03:21:44 25° SSW
ADEOS 3.7 03:17:09 10° NNE 03:22:25 73° ESE 03:25:57 21° S
Cosmos 2082 Rocket 4.3 03:20:10 10° N 03:25:07 29° NE 03:30:01 10° ESE
Cosmos 1602 3.9 03:24:09 25° S 03:26:17 67° E 03:30:07 10° NNE
Cosmos 1633 3.8 03:24:31 16° SSE 03:26:59 37° E 03:30:22 10° NNE
Meteor 2-21 4.4 03:23:22 22° SSW 03:27:26 80° W 03:33:35 10° N
COSMOS 2487 2.8 03:27:42 10° NNW 03:31:21 67° ENE 03:34:56 10° SSE
Meteor 2-4 Rocket 4.1 03:29:14 10° N 03:34:36 61° ENE 03:39:52 10° SSE
NOSS 2-2 (D) 3.9 03:32:27 24° SSW 03:34:47 57° ESE 03:39:29 10° NE
Cosmos 1140 Rocket 3.4 03:30:01 10° NNW 03:35:12 86° WSW 03:40:20 10° SSE
Cosmos 1300 Rocket 4.1 03:34:50 25° SW 03:36:56 42° WNW 03:41:07 10° N
USA 161 1.4 03:42:29 28° S 03:43:47 66° WSW 03:46:44 10° NNW
SME Rocket 3.6 03:40:21 10° SSE 03:44:00 56° ENE 03:48:16 10° N
BREEZE-M DEB (TANK) 4.3 03:28:49 10° W 03:44:28 60° N 03:48:26 10° E
BREEZE-M TANK 2.4 03:44:25 29° SW 03:44:49 31° SSW 03:47:25 10° SE
Okean 2 4.2 03:42:40 10° N 03:46:42 52° ENE 03:50:42 10° SSE
NPP 4.3 03:42:30 10° N 03:47:33 42° WNW 03:51:12 18° SW
NOSS 2-2 (C) 3.6 03:46:30 22° SSW 03:49:10 79° SE 03:54:02 10° NE
Cosmos 1850 Rocket 4.0 03:45:48 10° NNW 03:51:03 83° WSW 03:56:19 10° SSE
Cosmos 1892 Rocket 3.6 03:48:58 10° N 03:53:21 83° E 03:57:40 10° S
Cosmos 1741 Rocket 4.0 03:48:09 10° NNW 03:53:28 81° WSW 03:58:42 10° SSE
UNKNOWN OBJECT B 3.9 03:53:00 10° NNE 03:56:55 43° E 04:00:49 10° S
Spot 4 Rocket 4.1 03:51:59 10° N 03:57:06 66° WNW 04:01:12 16° SSW
Cosmos 1536 2.8 03:54:17 18° SSW 03:57:15 74° W 04:01:20 10° N
ERS-2 3.5 03:57:14 10° N 04:00:23 26° WNW 04:02:32 16° WSW
UNK 3.7 04:00:54 10° S 04:05:31 78° WSW 04:10:12 10° NNW
CZ-2D R/B 2.3 04:00:33 10° NNE 04:06:01 79° ESE 04:11:31 10° S
Abrixas rocket 3.4 04:04:22 10° W 04:07:36 42° N 04:10:49 10° ENE
Cosmos 1833 Rocket 4.0 04:02:14 10° NNW 04:07:37 45° ENE 04:12:58 10° SE
Gbstr 26 Del rocket 2.8 04:04:26 15° WSW 04:07:41 72° NNW 04:11:25 10° ENE
Cosmos 1934 Rocket 4.5 04:05:44 15° SW 04:10:40 45° WNW 04:16:33 10° N
Cosmos 1447 Rocket 4.4 04:06:56 10° N 04:13:07 78° W 04:19:14 10° S
CZ-2D R/B 4.2 04:10:46 10° NNE 04:14:40 49° E 04:18:35 10° S
NOSS 2-2 (E) 4.0 04:11:10 15° SW 04:14:41 59° NW 04:19:47 10° NNE
Cosmos 1461 3.2 04:11:59 15° SW 04:15:55 78° NW 04:20:32 10° NNE
IRS-1D 3.6 04:12:00 10° N 04:17:04 67° WNW 04:21:52 11° SSW
USA 129 3.3 04:15:14 10° SE 04:17:12 35° ENE 04:19:07 10° N
Timation 2 Rocket 3.9 04:11:54 10° NNW 04:18:03 73° WSW 04:24:00 10° SSE
APEX 4.3 04:15:34 10° S 04:18:09 29° ESE 04:21:09 10° NE
EO 1 Del DPAF 3.5 04:14:40 10° S 04:18:27 49° W 04:22:15 10° NNW
Cosmos 1602 Rocket 4.0 04:19:44 10° N 04:24:04 64° E 04:28:22 10° SSE
Cosmos 2061 Rocket 4.3 04:21:36 10° S 04:27:54 75° E 04:34:19 10° NNE
Cosmos 1844 Rocket 3.8 04:23:18 10° WSW 04:28:21 33° NW 04:33:28 10° N
Okean O Rocket 2.2 04:26:10 10° NNE 04:30:28 57° E 04:34:44 10° S
USA 234 4.2 04:26:12 10° S 04:31:15 24° SW 04:36:19 10° WNW
Cosmos 614 Rocket 4.4 04:26:47 10° NW 04:31:39 42° WSW 04:36:26 10° S
MTI 4.3 04:35:12 10° S 04:38:20 41° W 04:41:30 10° NNW
Cosmos 1400 Rocket 3.6 04:35:35 10° SW 04:39:09 35° WNW 04:42:48 10° N
Cosmos 1025 Rocket 4.5 04:37:26 10° NW 04:40:36 20° W 04:43:46 10° SW
SL-16 R/B 3.0 04:35:27 10° SSW 04:41:15 40° W 04:47:05 10° NNW
Cosmos 1626 Rocket 3.5 04:37:34 10° N 04:41:57 83° W 04:46:21 10° S
Cosmos 1174 3.3 04:39:44 10° NW 04:43:28 68° WSW 04:46:36 10° SSE
Cosmos 1455 Rocket 3.5 04:39:41 10° SSW 04:44:00 48° WNW 04:48:19 10° N
CENTAUR R/B 3.9 04:38:37 10° NW 04:45:09 29° WSW 04:51:54 10° SSW
Resurs 1-4 Rocket 2.6 04:41:48 10° N 04:46:52 46° WNW 04:51:54 10° SW
IRS-1C Rocket 4.2 04:42:25 10° NNE 04:47:43 88° WNW 04:52:58 10° SSW
DNEPR-1 R/B 4.5 04:42:01 10° NNW 04:47:52 68° NE 04:52:37 10° SE
ARIANE 5 R/B 3.5 04:43:42 10° N 04:48:07 32° WNW 04:52:32 10° SW
ATLAS 5 CENTAUR R/B 2.7 04:44:14 10° NW 04:49:55 44° WSW 04:55:56 10° S
UNK 2.8 04:44:22 10° WSW 04:50:54 87° SSE 04:53:24 10° ENE
Cosmos 2297 3.8 04:46:52 10° SSW 04:52:31 74° WNW 04:58:15 10° NNE
Cosmos 2278 Rocket 3.0 04:47:18 10° SW 04:52:38 41° WNW 04:58:00 10° NNE
